Wind_Speed
12 12 12 12 12 12 11 10 9 7 7 9 11 12 14 15 15 15 15 15 15 15 13 12 11 10 8 7 5 4 3 3 2 2 2 2 2 2 1 1 1 1 2
12 12 12 13 12 11 11 9 8 7 7 9 11 13 14 15 15 15 15 16 16 15 14 12 11 11 9 8 6 5 4 3 3 3 2 2 1 1 1 1 1 1 0
13 11 12 13 13 11 10 9 8 7 7 9 11 12 13 14 14 15 16 17 17 16 15 13 13 12 10 9 8 6 5 4 4 4 3 2 2 1 1 2 2 1 1
12 11 12 12 12 11 10 9 8 6 7 8 10 11 12 14 15 16 17 17 17 17 16 15 14 13 11 10 9 8 7 6 6 5 5 4 3 2 2 2 2 2 2
12 12 11 11 11 10 10 9 8 6 6 8 9 10 12 14 16 16 17 18 18 17 17 16 15 14 13 12 11 9 8 7 7 7 6 6 5 4 4 4 3 3 3
10 10 10 10 10 10 9 8 7 6 6 7 9 10 11 14 15 17 18 18 18 18 17 17 16 15 15 13 12 11 10 9 9 9 8 7 7 7 6 6 5 5 5
10 10 10 9 9 9 8 8 7 6 5 6 8 9 10 12 15 17 18 18 18 18 18 18 17 17 16 15 14 13 12 12 11 11 10 10 9 9 9 8 8 8 8
9 9 9 9 9 8 8 7 7 6 5 6 7 9 10 11 13 16 18 18 18 18 17 17 18 17 17 16 16 15 14 14 13 13 13 12 12 12 11 11 11 11 11
8 8 8 9 9 8 7 7 7 6 5 5 6 7 9 11 13 15 17 17 18 18 18 18 18 18 18 18 17 16 16 16 15 15 15 15 15 15 15 14 14 14 13
8 8 9 8 8 8 7 7 7 6 5 5 6 7 9 10 13 14 15 16 16 17 18 19 19 19 20 20 19 18 18 18 18 18 17 17 17 17 17 17 17 17 17
9 8 8 8 7 7 7 7 7 7 6 6 6 7 8 10 12 13 14 15 16 17 18 19 20 20 19 20 21 20 20 19 19 19 19 19 20 19 20 20 20 20 20
9 9 9 9 9 9 9 8 8 8 8 7 7 8 8 9 11 13 14 15 16 17 18 19 20 20 20 19 20 21 22 21 21 21 21 21 20 21 21 22 22 22 22
11 11 11 11 11 10 10 10 10 9 8 8 8 9 10 11 12 13 14 15 16 17 18 19 19 20 21 22 22 23 23 23 23 22 23 23 23 23 24 24 24 24 24
13 12 12 13 13 12 12 12 12 11 10 10 10 10 11 12 13 14 14 15 16 17 18 19 19 20 22 23 24 24 24 25 24 24 24 24 25 25 25 25 25 26 26
15 14 13 14 14 13 13 13 13 13 12 12 12 12 12 13 14 14 15 16 16 17 19 20 21 21 22 23 24 24 25 25 26 26 26 25 25 26 27 27 27 28 28
16 15 15 15 15 14 14 14 14 14 14 14 14 14 14 14 15 15 17 17 18 19 19 20 21 21 22 23 24 25 25 26 27 27 27 27 27 27 28 28 29 30 30
18 17 16 16 16 16 16 16 16 15 15 15 15 15 16 17 17 17 18 18 19 19 21 20 21 22 23 23 24 25 26 27 27 28 28 28 28 28 29 30 30 31 32
19 19 18 17 17 17 17 17 16 16 16 16 17 18 18 18 19 19 19 20 21 21 21 21 21 23 23 23 24 25 25 25 26 27 27 27 28 29 30 31 32 34 34
20 20 20 20 20 19 19 18 18 18 18 19 19 19 20 20 20 20 20 21 22 23 22 22 22 22 22 22 24 25 26 26 27 27 27 29 30 31 31 33 34 34 35
22 22 22 22 22 22 21 21 20 20 20 20 21 21 22 22 22 22 22 22 22 23 23 23 23 22 23 23 24 26 28 28 28 28 29 30 32 33 34 35 36 37 37
23 24 24 24 24 24 24 23 23 22 22 22 22 23 23 23 23 23 23 23 23 23 23 24 24 24 25 25 26 28 29 30 30 31 32 33 33 35 36 36 37 38 38
24 25 25 25 25 26 26 25 25 24 23 23 23 23 24 25 24 24 24 24 24 24 23 24 25 25 26 27 28 29 30 31 32 33 34 34 34 34 35 36 36 37 38
25 25 26 26 26 26 26 26 25 25 24 24 24 24 24 24 25 25 25 25 25 24 25 25 25 25 26 28 29 30 30 31 31 31 32 33 33 34 35 36 37 37 39
25 25 26 26 26 26 25 25 24 24 24 25 25 26 26 25 25 25 25 26 26 26 26 26 26 27 27 27 28 30 30 30 31 31 32 34 34 35 37 39 39 40 41
25 25 26 26 26 26 25 24 24 24 25 25 25 25 26 27 28 27 26 26 26 27 27 27 27 27 27 27 28 29 30 31 32 34 34 35 36 37 39 39 40 42 44
25 24 25 25 25 25 26 25 25 25 25 25 24 24 24 24 25 25 26 27 27 28 28 28 28 28 28 28 28 30 31 33 33 34 35 36 37 39 39 40 42 43 44
Wind_Direction
310 313 319 325 325 323 319 309 298 273 248 233 218 211 210 210 210 207 205 201 199 200 203 204 201 198 194 192 190 181 168 153 143 137 136 138 135 132 126 127 120 94 77
304 310 315 324 327 323 321 318 310 280 258 232 223 212 209 209 207 205 203 203 203 204 205 206 202 199 198 199 198 194 188 178 169 163 162 159 160 172 176 163 150 129 73
301 308 315 323 325 321 314 314 310 291 260 229 226 219 214 212 209 207 204 206 208 207 206 205 203 201 201 203 203 201 200 199 195 195 198 206 215 224 230 223 222 238 283
300 304 310 319 324 320 317 313 313 291 261 239 223 217 219 216 214 212 210 208 208 209 208 205 205 204 205 207 208 208 206 210 213 215 215 217 222 229 226 230 236 248 271
295 298 306 315 320 320 318 318 317 298 270 246 227 222 224 220 220 217 213 209 209 211 211 208 208 208 210 211 212 214 217 222 225 226 225 227 231 236 237 237 244 255 267
296 296 303 312 317 318 318 316 312 302 277 244 233 230 228 223 219 215 213 211 211 213 213 211 212 212 213 214 216 218 222 227 230 232 233 236 238 241 243 246 252 261 268
296 296 300 307 313 317 321 319 311 302 280 248 236 235 230 222 218 214 213 213 212 214 216 216 217 217 218 220 221 224 227 229 233 235 239 242 244 246 250 254 259 264 268
294 297 299 302 306 311 320 324 320 305 287 254 241 237 229 221 218 214 216 215 216 218 221 221 224 224 224 225 227 229 232 234 236 240 243 245 247 250 254 258 262 267 270
288 291 299 300 300 304 312 318 319 314 304 267 249 237 231 224 219 217 219 223 225 223 226 228 229 228 230 231 232 234 237 240 242 244 246 248 251 252 255 258 262 266 270
279 281 290 295 297 299 303 308 309 307 302 280 261 246 237 225 218 219 223 224 226 227 229 231 233 235 236 236 237 238 242 245 246 248 249 252 255 256 257 258 261 264 267
272 277 284 290 293 294 295 295 298 292 286 279 261 248 237 224 221 222 223 225 228 231 234 235 237 239 242 243 243 243 247 250 252 252 253 255 256 257 260 261 262 265 267
267 273 279 285 287 288 289 291 293 291 279 271 259 249 240 231 226 225 227 230 231 233 236 239 240 241 243 245 246 249 251 252 253 254 256 258 258 259 261 262 264 266 267
265 269 274 278 279 283 284 286 288 288 277 266 263 254 245 240 235 232 233 236 238 240 241 242 243 244 246 248 249 253 254 254 255 255 256 258 260 262 263 264 265 267 269
260 265 270 272 274 278 279 282 283 283 274 262 260 256 247 242 239 239 239 241 245 245 246 246 247 247 248 249 251 254 257 256 257 258 258 260 263 263 263 264 266 268 271
260 263 267 269 273 276 275 277 278 275 272 264 257 255 251 247 245 244 245 247 249 251 251 251 250 251 251 252 253 254 255 256 258 261 261 261 262 263 263 265 266 268 271
259 263 265 267 271 273 273 273 273 269 267 264 257 254 253 251 250 251 251 252 254 254 256 257 253 253 254 255 256 257 258 258 260 262 263 262 262 263 265 266 267 269 271
257 259 261 265 267 269 270 274 274 269 266 263 260 258 256 253 253 255 255 255 257 258 257 258 257 256 257 258 259 259 262 262 263 264 265 264 263 263 264 267 269 270 271
258 258 260 263 266 267 270 273 274 271 267 265 263 261 260 258 257 257 256 256 257 258 259 260 259 258 260 262 264 265 264 263 264 265 265 265 265 266 266 267 268 270 271
256 257 260 263 266 268 270 271 271 270 268 266 264 263 262 262 262 261 261 261 261 260 260 259 259 261 262 263 265 267 267 268 268 268 268 269 268 268 269 269 270 271 271
255 257 260 262 265 267 268 271 270 269 269 268 267 267 265 264 264 264 263 263 264 261 260 261 260 261 263 265 267 268 269 270 270 271 272 272 272 272 273 272 272 273 273
255 257 259 260 262 264 266 268 268 267 268 268 269 269 266 265 265 264 262 261 263 264 265 265 263 264 266 268 270 269 269 270 270 270 271 273 274 275 276 275 275 275 276
255 257 258 260 261 264 265 266 265 266 267 267 268 269 268 266 265 265 261 262 264 263 265 266 267 267 269 269 270 271 271 271 272 271 272 273 274 277 277 276 277 278 280
256 257 258 260 262 264 265 264 265 265 267 268 267 268 269 267 265 264 261 263 263 264 266 266 268 271 272 272 273 273 273 273 274 275 275 274 276 278 279 281 282 282 283
256 258 259 259 261 262 262 263 264 264 266 269 269 268 269 267 265 265 265 266 267 266 267 269 268 270 271 272 272 272 274 275 276 278 279 280 282 283 283 283 283 285 287
256 257 259 259 260 260 260 262 265 266 267 269 271 269 268 267 265 263 264 266 267 266 266 268 270 271 272 274 275 276 276 277 279 281 280 281 282 284 285 285 286 286 288
253 254 257 257 258 259 260 263 266 268 269 270 272 270 269 268 267 263 263 265 268 269 270 271 271 272 275 277 279 280 281 283 284 284 283 284 285 287 287 288 288 289 289
Height
5883 5881 5879 5876 5873 5871 5868 5867 5866 5865 5865 5866 5867 5869 5871 5873 5875 5877 5879 5882 5884 5887 5889 5891 5893 5894 5895 5896 5897 5898 5898 5898 5898 5899 5899 5899 5898 5899 5899 5899 5899 5899 5898
5881 5879 5877 5874 5871 5869 5867 5865 5865 5864 5864 5865 5866 5867 5869 5871 5873 5875 5878 5880 5883 5885 5888 5890 5891 5893 5894 5895 5896 5897 5898 5898 5898 5899 5899 5899 5899 5899 5899 5899 5899 5899 5899
5879 5877 5875 5873 5870 5868 5866 5865 5863 5862 5862 5863 5864 5865 5867 5869 5872 5874 5876 5879 5881 5884 5886 5888 5890 5892 5893 5894 5895 5896 5897 5898 5898 5898 5899 5899 5899 5899 5899 5899 5899 5899 5899
5876 5875 5873 5871 5869 5866 5865 5863 5861 5860 5860 5861 5862 5863 5865 5867 5869 5872 5874 5876 5879 5882 5884 5886 5888 5890 5892 5893 5894 5895 5896 5897 5897 5898 5898 5898 5898 5898 5899 5899 5898 5898 5898
5874 5873 5871 5869 5867 5865 5864 5862 5860 5860 5859 5860 5860 5862 5863 5865 5867 5869 5872 5875 5877 5880 5882 5884 5886 5888 5890 5891 5893 5894 5895 5896 5896 5897 5897 5897 5897 5898 5898 5898 5898 5898 5898
5871 5870 5869 5867 5866 5864 5862 5861 5859 5859 5858 5858 5859 5860 5861 5863 5865 5867 5870 5873 5875 5878 5880 5882 5884 5886 5888 5889 5891 5892 5893 5894 5895 5896 5896 5896 5897 5897 5897 5897 5897 5897 5897
5869 5868 5867 5866 5864 5863 5861 5860 5858 5857 5857 5857 5858 5858 5859 5861 5863 5865 5868 5871 5873 5876 5878 5880 5882 5884 5886 5887 5888 5890 5891 5892 5893 5894 5894 5895 5895 5895 5895 5896 5895 5895 5895
5867 5866 5865 5864 5863 5862 5860 5859 5857 5856 5855 5856 5856 5857 5858 5859 5861 5863 5866 5868 5871 5873 5875 5877 5879 5881 5883 5885 5886 5887 5888 5889 5890 5891 5892 5892 5893 5893 5893 5893 5893 5893 5893
5864 5864 5863 5862 5861 5860 5859 5858 5857 5856 5855 5855 5855 5855 5856 5857 5859 5861 5863 5866 5868 5871 5872 5875 5877 5879 5880 5882 5883 5884 5886 5887 5887 5888 5889 5889 5890 5890 5890 5890 5890 5891 5890
5862 5862 5861 5860 5859 5859 5858 5857 5856 5855 5854 5854 5854 5854 5854 5855 5857 5859 5861 5863 5866 5868 5870 5872 5874 5875 5877 5878 5880 5881 5882 5883 5884 5885 5885 5886 5886 5886 5886 5887 5886 5886 5886
5860 5859 5859 5858 5857 5857 5856 5856 5855 5854 5854 5853 5853 5853 5853 5853 5855 5857 5859 5861 5863 5865 5867 5868 5870 5872 5873 5874 5876 5877 5878 5879 5879 5880 5881 5881 5881 5882 5882 5882 5882 5882 5882
5858 5857 5857 5856 5856 5855 5855 5854 5854 5853 5852 5852 5851 5851 5852 5852 5853 5855 5857 5858 5860 5861 5863 5864 5866 5867 5869 5870 5871 5872 5873 5874 5875 5875 5876 5876 5876 5876 5877 5877 5877 5877 5876
5855 5855 5854 5854 5853 5853 5853 5852 5852 5851 5850 5850 5850 5850 5850 5851 5852 5853 5854 5856 5857 5858 5859 5860 5861 5863 5864 5865 5866 5867 5868 5869 5869 5870 5870 5870 5870 5871 5871 5871 5871 5871 5870
5852 5852 5852 5851 5851 5850 5850 5850 5849 5849 5848 5848 5848 5847 5848 5848 5849 5850 5851 5853 5853 5854 5855 5856 5857 5858 5859 5860 5861 5862 5862 5863 5863 5863 5864 5864 5864 5864 5864 5864 5864 5864 5864
5848 5848 5848 5848 5848 5847 5847 5846 5846 5846 5845 5845 5845 5845 5845 5846 5846 5847 5848 5849 5850 5851 5851 5851 5852 5853 5854 5854 5855 5856 5856 5856 5857 5857 5857 5857 5857 5857 5857 5857 5857 5857 5857
5844 5844 5844 5844 5844 5844 5843 5843 5842 5842 5842 5842 5842 5842 5842 5843 5843 5844 5844 5845 5845 5846 5846 5846 5847 5847 5848 5849 5849 5850 5850 5850 5850 5850 5850 5850 5850 5850 5850 5850 5850 5850 5849
5839 5840 5840 5840 5840 5840 5840 5839 5839 5839 5838 5838 5838 5839 5839 5839 5840 5840 5840 5840 5841 5841 5841 5841 5841 5842 5842 5843 5843 5843 5844 5844 5844 5844 5843 5843 5843 5843 5843 5843 5842 5842 5841
5834 5835 5835 5835 5835 5835 5835 5835 5835 5835 5834 5834 5834 5835 5835 5835 5835 5835 5835 5835 5836 5836 5836 5836 5836 5836 5836 5837 5837 5837 5837 5837 5837 5836 5836 5836 5836 5835 5835 5835 5834 5833 5832
5829 5829 5830 5830 5830 5830 5830 5830 5830 5830 5830 5830 5830 5830 5830 5830 5830 5830 5830 5830 5830 5830 5830 5830 5830 5830 5830 5830 5831 5831 5830 5830 5829 5829 5829 5828 5828 5828 5827 5826 5825 5824 5822
5823 5824 5824 5825 5825 5825 5825 5825 5825 5825 5825 5825 5825 5824 5824 5824 5824 5824 5824 5824 5824 5824 5824 5824 5824 5824 5824 5824 5824 5824 5823 5823 5822 5822 5821 5820 5820 5819 5818 5817 5815 5814 5812
5817 5817 5818 5818 5819 5819 5819 5819 5819 5820 5820 5819 5819 5819 5818 5818 5818 5818 5818 5818 5818 5818 5818 5818 5818 5818 5818 5818 5817 5816 5816 5815 5814 5813 5812 5811 5811 5809 5808 5807 5805 5804 5802
5810 5811 5811 5812 5812 5812 5813 5813 5813 5813 5813 5813 5813 5812 5812 5812 5812 5812 5811 5811 5812 5812 5811 5811 5811 5811 5811 5810 5810 5809 5808 5807 5806 5805 5803 5802 5801 5800 5798 5797 5795 5793 5791
5803 5804 5804 5805 5805 5805 5806 5806 5806 5806 5806 5806 5806 5806 5805 5805 5804 5804 5804 5805 5805 5805 5805 5804 5804 5804 5803 5803 5802 5801 5800 5798 5797 5796 5794 5793 5791 5790 5788 5786 5784 5782 5780
5796 5796 5797 5798 5798 5798 5799 5799 5799 5799 5799 5799 5799 5799 5798 5797 5797 5797 5797 5797 5798 5798 5797 5797 5796 5796 5795 5794 5794 5793 5791 5790 5789 5787 5785 5784 5782 5780 5778 5776 5774 5771 5769
5789 5789 5790 5790 5791 5791 5792 5792 5792 5792 5792 5792 5792 5791 5791 5790 5789 5789 5790 5790 5790 5790 5790 5790 5789 5788 5788 5787 5786 5784 5783 5782 5780 5778 5776 5774 5772 5770 5768 5765 5763 5760 5757
5781 5782 5783 5783 5784 5784 5785 5785 5785 5785 5785 5785 5784 5784 5784 5783 5782 5782 5783 5783 5783 5783 5783 5782 5782 5780 5780 5779 5778 5777 5775 5773 5771 5769 5767 5764 5762 5760 5757 5754 5751 5748 5744